Baton Rouge, LA

11:46 AM CDT on August 30, 2016 (GMT -0500)
Baton Rouge Metro-Ryan

Weather History for KBTR - May, 2014

Change the Weather History Date:

Monday, May 12, 2014

  Actual Average Record
Temperature  
Mean Temperature 81 °F 75 °F  
Max Temperature 89 °F 85 °F 100 °F (1922)
Min Temperature 73 °F 64 °F 47 °F (1952)
Degree Days  
Heating Degree Days 0 0  
Month to date heating degree days 3 0  
Since 1 July heating degree days 1981 1553  
Cooling Degree Days 16 10  
Month to date cooling degree days 106 103  
Year to date cooling degree days 319 334  
Growing Degree Days 31 (Base 50)    
Moisture  
Dew Point 70 °F    
Average Humidity 72    
Maximum Humidity 94    
Minimum Humidity 50    
Precipitation  
Precipitation 0.00 in 0.16 in 4.32 in (2004)
Month to date precipitation 4.33 1.84  
Year to date precipitation 20.35 21.47  
Snow  
Snow 0.00 in - - ()
Month to date snowfall 0.0  
Since 1 July snowfall 0.4  
Snow Depth 0.00 in    
Sea Level Pressure  
Sea Level Pressure 30.00 in    
Wind  
Wind Speed 11 mph (SE)    
Max Wind Speed 20 mph    
Max Gust Speed 26 mph    
Visibility 9 miles    
Events      
T = Trace of Precipitation, MM = Missing Value Source: NWS Daily Summary

Daily Weather History Graph

Daily Weather History Graph

Search for Another Location

Airport or City:

Trip Planner

Search our weather history database for the weather conditions in past years. The results will help you decide how hot, cold, wet, or windy it might be!

Date:

Astronomy

May. 12, 2014 Rise Set
Actual Time 6:12 AM CDT 7:50 PM CDT
Civil Twilight 5:45 AM CDT 8:16 PM CDT
Nautical Twilight 5:14 AM CDT 8:47 PM CDT
Astronomical Twilight 4:41 AM CDT 9:20 PM CDT
Moon 5:56 PM CDT (5/12) 4:40 AM CDT (5/12)
Length of Visible Light 14h 30m
Length of Day
13h 38m
Waxing Gibbous, 95% of the Moon is Illuminated
May 12
Waxing Gibbous
May 14
Full
May 21
Last Quarter
May 28
New
Jun 5
First Quarter

Hourly Weather History & Observations

Time (CDT) Temp. Heat Index Dew Point Humidity Pressure Visibility Wind Dir Wind Speed Gust Speed Precip Events Conditions
12:48 AM 75.2 °F - 73.4 °F 94% 29.95 in 9.0 mi SE 9.2 mph - N/A   Overcast
12:53 AM 75.9 °F - 73.0 °F 91% 29.95 in 9.0 mi SSE 11.5 mph - N/A   Overcast
1:53 AM 75.9 °F - 72.0 °F 87% 29.94 in 8.0 mi SE 11.5 mph - N/A   Overcast
2:53 AM 75.9 °F - 72.0 °F 87% 29.94 in 9.0 mi SE 9.2 mph - N/A   Overcast
3:53 AM 75.9 °F - 72.0 °F 87% 29.96 in 9.0 mi SE 9.2 mph - N/A   Overcast
4:53 AM 73.9 °F - 71.1 °F 91% 29.96 in 8.0 mi ESE 8.1 mph - N/A   Overcast
5:51 AM 73.4 °F - 71.6 °F 94% 29.98 in 6.0 mi East 8.1 mph - N/A   Overcast
5:53 AM 73.9 °F - 71.1 °F 91% 29.98 in 6.0 mi East 8.1 mph - N/A   Overcast
6:53 AM 73.9 °F - 72.0 °F 93% 30.00 in 4.0 mi East 8.1 mph - N/A   Mostly Cloudy
7:24 AM 75.0 °F - 72.0 °F 90% 30.02 in 5.0 mi ESE 9.2 mph - N/A   Overcast
7:53 AM 75.9 °F - 72.0 °F 87% 30.03 in 7.0 mi ESE 10.4 mph - N/A   Overcast
8:53 AM 78.8 °F - 71.6 °F 78% 30.04 in 8.0 mi SE 9.2 mph - N/A   Overcast
9:30 AM 81.0 °F 85.2 °F 72.0 °F 74% 30.05 in 10.0 mi SSE 13.8 mph 19.6 mph N/A   Scattered Clouds
9:53 AM 82.0 °F 86.3 °F 71.1 °F 69% 30.06 in 10.0 mi ESE 15.0 mph 23.0 mph N/A   Mostly Cloudy
10:53 AM 82.9 °F 87.0 °F 70.0 °F 65% 30.06 in 10.0 mi SSE 13.8 mph - N/A   Mostly Cloudy
11:53 AM 87.1 °F 92.0 °F 70.0 °F 57% 30.05 in 10.0 mi SE 17.3 mph 23.0 mph N/A   Mostly Cloudy
12:53 PM 87.1 °F 92.0 °F 70.0 °F 57% 30.04 in 10.0 mi SE 13.8 mph 20.7 mph N/A   Mostly Cloudy
1:53 PM 89.1 °F 92.9 °F 68.0 °F 50% 30.03 in 10.0 mi South 17.3 mph 25.3 mph N/A   Mostly Cloudy
2:00 PM 86.0 °F 88.8 °F 66.9 °F 53% 30.03 in 10.0 mi SSE 16.1 mph 24.2 mph N/A   Mostly Cloudy
2:53 PM 86.0 °F 88.8 °F 66.9 °F 53% 30.01 in 10.0 mi SE 16.1 mph - N/A   Mostly Cloudy
3:53 PM 86.0 °F 89.4 °F 68.0 °F 55% 30.00 in 10.0 mi SE 11.5 mph - N/A   Mostly Cloudy
4:53 PM 84.9 °F 88.8 °F 69.1 °F 59% 29.97 in 10.0 mi SE 17.3 mph 21.9 mph N/A   Clear
5:53 PM 84.0 °F 87.8 °F 69.1 °F 61% 29.97 in 10.0 mi ESE 11.5 mph - N/A   Partly Cloudy
6:53 PM 82.9 °F 86.5 °F 69.1 °F 63% 29.97 in 10.0 mi ESE 12.7 mph - N/A   Mostly Cloudy
7:53 PM 80.1 °F 83.2 °F 70.0 °F 71% 29.98 in 10.0 mi SE 10.4 mph 17.3 mph N/A   Scattered Clouds
8:53 PM 79.0 °F - 70.0 °F 74% 29.99 in 10.0 mi SE 8.1 mph - N/A   Scattered Clouds
9:53 PM 77.0 °F - 69.8 °F 78% 29.99 in 10.0 mi ESE 5.8 mph - N/A   Clear
10:53 PM 75.9 °F - 70.0 °F 82% 30.00 in 10.0 mi SE 5.8 mph - N/A   Partly Cloudy
11:30 PM 75.9 °F - 70.0 °F 82% 30.02 in 10.0 mi SE 6.9 mph - N/A   Mostly Cloudy
11:53 PM 75.0 °F - 70.0 °F 84% 30.01 in 10.0 mi ESE 5.8 mph - N/A   Mostly Cloudy